Home   Weather   47°24'N, 9°37'E   Past weeks
Flag for Switzerland

Past Weather in 47°24'N, 9°37'E, Switzerland — Yesterday and Last 2 Weeks

Now
63 °F

Clear.


Feels Like: 63 °F
Forecast: 67 / 57 °F
Wind: 3 mph from North

Location: Saint Gallen-Altenrhein

Current Time: Jun 19, 2019 at 3:16:01 am

Latest Report: Jun 19, 2019 at 2:20 am


Visibility: 10 mi

Pressure: 29.95 "Hg

Humidity: 88%

Dew Point: 59 °F

Location of 47°24'N, 9°37'ELocation

Past Weather in 47°24'N, 9°37'E — Graph

°F

47°24'N, 9°37'E Temperature Yesterday

Maximum temperature yesterday: 81 °F (at 3:50 pm)
Minimum temperature yesterday: 55 °F (at 5:20 am)
Average temperature yesterday: 69 °F

High & Low Weather Summary for the Past Weeks

 TemperatureHumidityPressure
High86 °F (Jun 5, 4:20 pm)100% (Jun 7, 12:20 am)30.27 "Hg (Jun 7, 12:20 am)
Low50 °F (Jun 7, 1:50 am)20% (Jun 7, 4:50 pm)29.62 "Hg (Jun 5, 5:50 pm)
Average64 °F74%29.99 "Hg
* Reported Jun 4 1:20 am — Jun 19 1:50 am, 47°24'N, 9°37'E. Weather by CustomWeather, © 2019

Note: Actual official high and low records may vary slightly from our data, if they occured in-between our weather recording intervals... More about our weather records

Advertising

47°24'N, 9°37'E Weather History for the Previous 24 Hours

Scroll right to see more
 ConditionsComfort  
Time TempWeatherWind HumidityBarometerVisibility
1:50 am
Wed, Jun 19
64 °FClear.2 mph83%29.98 "Hg10 mi
1:20 am64 °FClear.5 mph78%29.98 "Hg10 mi
12:20 am64 °FClear.5 mph78%29.98 "Hg10 mi
11:50 pm
Tue, Jun 18
70 °FClear.8 mph60%29.98 "Hg10 mi
11:20 pm72 °FClear.10 mph53%29.98 "HgN/A
10:50 pm72 °FMild.6 mph57%29.98 "HgN/A
10:20 pm70 °FMostly cloudy.13 mph60%29.95 "HgN/A
9:50 pm66 °FLight rain. Passing clouds.9 mph78%29.98 "HgN/A
9:20 pm68 °FLight rain. More clouds than sun.3 mph64%30.01 "HgN/A
8:50 pm70 °FLight rain. Partly sunny.9 mph69%29.98 "Hg4 mi
8:20 pm70 °FLight rain. Partly sunny.9 mph69%29.98 "Hg4 mi
7:50 pm77 °FThundershowers. Partly sunny.6 mph51%29.98 "HgN/A
7:20 pm77 °FPartly sunny.5 mph47%29.95 "HgN/A
6:50 pm79 °FScattered clouds.6 mph39%29.92 "HgN/A
6:20 pm79 °FScattered clouds.6 mph39%29.92 "HgN/A
5:50 pm81 °FScattered clouds.7 mph45%29.95 "HgN/A
5:20 pm81 °FScattered clouds.7 mph45%29.95 "HgN/A
4:50 pm77 °FPassing clouds.2 mph36%29.95 "HgN/A
4:20 pm77 °FPassing clouds.2 mph36%29.95 "HgN/A
3:50 pm81 °FPassing clouds.3 mph24%29.98 "HgN/A
3:20 pm79 °FPassing clouds.6 mph51%29.98 "HgN/A
2:50 pm79 °FPassing clouds.6 mph61%29.98 "HgN/A
2:20 pm79 °FPassing clouds.3 mph54%29.98 "HgN/A
1:50 pm77 °FPassing clouds.2 mph57%30.01 "HgN/A
1:20 pm75 °FPassing clouds.5 mph65%30.01 "HgN/A
12:50 pm75 °FPassing clouds.5 mph65%30.01 "HgN/A
12:20 pm73 °FPassing clouds.6 mph69%30.01 "HgN/A
11:50 am72 °FSunny.3 mph69%30.04 "Hg10 mi
11:20 am72 °FSunny.3 mph69%30.04 "Hg10 mi
10:50 am68 °FSunny.5 mph83%30.04 "Hg10 mi
10:20 am68 °FSunny.5 mph83%30.04 "Hg10 mi
9:50 am66 °FPassing clouds.5 mph83%30.04 "HgN/A
9:20 am66 °FPassing clouds.5 mph83%30.04 "HgN/A
8:50 am64 °FSunny.3 mph88%30.04 "Hg10 mi
8:20 am64 °FSunny.3 mph88%30.04 "Hg10 mi
7:50 am63 °FSunny.No wind100%30.04 "Hg10 mi
7:20 am63 °FSunny.No wind100%30.04 "Hg10 mi
6:50 am59 °FSunny.2 mph100%30.04 "Hg10 mi
6:20 am59 °FSunny.2 mph100%30.04 "Hg10 mi
5:50 am57 °FSunny.1 mph100%30.04 "Hg10 mi
5:20 am55 °FClear.3 mph100%30.04 "Hg10 mi
4:50 am57 °FClear.2 mph100%30.04 "Hg10 mi
4:20 am59 °FClear.2 mph100%30.04 "Hg10 mi
3:50 am57 °FClear.2 mph100%30.04 "Hg10 mi
3:20 am59 °FClear.1 mph100%30.01 "Hg10 mi
Weather by CustomWeather, © 2019

See weather overview